Flag for Canada Weather past 2 weeks in Creston, British Columbia, Canada

Now
62 °F

Cool.


Feels Like: 62 °F
Forecast: 54 / 63 °F
Wind: 9 mph from South

Location: Creston

Current Time: Jul 24, 2014 at 2:26:15 AM

Latest Report: Jul 24, 2014 at 1:00 AM


Visibility: N/A

Pressure: 29.96 "Hg

Humidity: 64%

Dew point: 49 °F

Location of CrestonLocation

Historic Weather in Creston — Graph

°F

Creston temperature yesterday

Maximum temperature yesterday: 85 °F (at 4:00 PM)
Minimum temperature yesterday: 56 °F (at 6:00 AM)
Average temperature yesterday: 67 °F

Past Weeks' High & Low Weather Summary

 TemperatureHumidityPressure
High95 °F (Jul 13, 6:00 PM)89% (Jul 23, 6:00 AM)30.18 "Hg (Jul 23, 6:00 AM)
Low56 °F (Jul 23, 6:00 AM)18% (Jul 9, 8:00 PM)29.67 "Hg (Jul 17, 7:00 PM)
Average73 °F49%29.92 "Hg
* Reported Jul 9 1:00 AM — Jul 24 1:00 AM, Creston, Weather by CustomWeather, © 2014

Note: Actual official high and low records may vary slightly from our data, if they occured in-between our weather recording intervals... More about our weather records

Advertising

Creston weather history for previous 24 hours

 ConditionsComfort  
Time TempWeatherWind HumidityBarometerVisibility
1:00 AM
Jul 24
62 °FCool.9 mph64%29.96 "HgN/A
12:00 AM63 °FMild.12 mph70%29.96 "HgN/A
11:00 PM
Jul 23
64 °FMild.12 mph78%29.94 "HgN/A
10:00 PM64 °FMild.5 mph80%29.95 "HgN/A
9:00 PM64 °FMild.6 mph79%29.95 "HgN/A
8:00 PM65 °FMild.13 mph80%29.92 "HgN/A
7:00 PM66 °FMild.7 mph75%29.91 "HgN/A
6:00 PM69 °FMild.13 mph72%29.80 "HgN/A
5:00 PM82 °FWarm.5 mph44%29.78 "HgN/A
4:00 PM85 °FPleasantly warm.6 mph38%29.82 "HgN/A
3:00 PM83 °FWarm.6 mph44%29.86 "HgN/A
2:00 PM81 °FWarm.6 mph44%29.91 "HgN/A
1:00 PM78 °FWarm.3 mph54%29.95 "HgN/A
12:00 PM76 °FMild.2 mph52%29.98 "HgN/A
11:00 AM71 °FMild.2 mph63%30.02 "HgN/A
10:00 AM67 °FMild.2 mph68%30.06 "HgN/A
9:00 AM64 °FMild.2 mph74%30.09 "HgN/A
8:00 AM61 °FCool.1 mph83%30.11 "HgN/A
7:00 AM58 °FCool.1 mph87%30.11 "HgN/A
6:00 AM56 °FCool.3 mph89%30.12 "HgN/A
5:00 AM58 °FCool.5 mph84%30.13 "HgN/A
4:00 AM57 °FCool.5 mph85%30.13 "HgN/A
3:00 AM59 °FCool.1 mph80%30.14 "HgN/A
2:00 AM61 °FCool.2 mph79%30.16 "HgN/A
Weather by CustomWeather, © 2014

See weather overviewHow to use our weather pages